This demonstration page uses our WeatherBlox Daily Observations layout. Learn more.

Left ArrowRight Arrow

39.92423, -83.80882

Hourly Observations for June 16, 2022

Temp ( °F °C ) Dew Point ( °F °C ) Humidity (%) Winds ( mph kmh ) Pressure ( in mb ) Visibility ( mi km ) Precip ( " mm )
12:56 am 00:56 Clear 78 25.6 78 25.6 100 100 SW 7 11 30.00 1016 10 16 0.00 0.00
1:56 am 01:56 Clear 77 25 77 25 100 100 SW 6 9 30.01 1016 10 16 0.00 0.00
2:56 am 02:56 Clear 77 25 77 25 100 100 SW 6 9 30.02 1017 10 16 0.00 0.00
3:56 am 03:56 Clear 77 25 77 25 100 100 SW 6 9 30.01 1016 10 16 0.00 0.00
4:56 am 04:56 Clear 77 25 77 25 100 100 SSW 6 9 30.02 1017 10 16 0.00 0.00
5:56 am 05:56 Clear 78 25.6 76 24.4 93 93 WSW 9 15 30.04 1017 10 16 0.02 0.51
6:56 am 06:56 Sunny 78 25.6 77 25 97 97 SSW 9 15 30.04 1017 10 16 0.00 0.00
7:56 am 07:56 Sunny 79 26.1 76 24.4 90 90 SSW 8 13 30.03 1017 10 16 0.00 0.00
8:56 am 08:56 Sunny 83 28.3 73 22.8 72 72 WSW 12 19 30.01 1016 10 16 0.00 0.00
9:56 am 09:56 Sunny 85 29.4 74 23.3 70 70 WSW 17 28 30.01 1016 10 16 0.00 0.00
10:56 am 10:56 Mostly Sunny 86 30 74 23.3 67 67 W 21 33 30.02 1017 10 16 0.00 0.00
11:56 am 11:56 Mostly Sunny 89 31.7 74 23.3 61 61 W 21 33 30.01 1016 10 16 0.00 0.00
12:56 pm 12:56 Partly Cloudy 91 32.8 74 23.3 57 57 W 16 26 30.01 1016 10 16 0.00 0.00
1:56 pm 13:56 Mostly Cloudy 90 32.2 74 23.3 59 59 WSW 18 30 30.00 1016 10 16 0.00 0.00
2:56 pm 14:56 Mostly Cloudy 90 32.2 74 23.3 59 59 WSW 17 28 29.98 1015 10 16 0.00 0.00
3:56 pm 15:56 Mostly Cloudy 90 32.2 74 23.3 59 59 SW 17 28 29.96 1015 10 16 0.00 0.00
4:56 pm 16:56 Mostly Cloudy 90 32.2 75 23.9 62 62 W 18 30 29.95 1014 10 16 0.00 0.00
5:56 pm 17:56 Mostly Cloudy 91 32.8 75 23.9 59 59 WSW 18 30 29.93 1013 10 16 0.00 0.00
6:56 pm 18:56 Mostly Sunny 89 31.7 76 24.4 65 65 WSW 17 28 29.93 1013 10 16 0.00 0.00
7:56 pm 19:56 Mostly Sunny 87 30.6 74 23.3 65 65 W 15 24 29.92 1013 10 16 0.00 0.00
8:56 pm 20:56 Sunny 85 29.4 74 23.3 70 70 WSW 14 22 29.92 1013 10 16 0.00 0.00
9:56 pm 21:56 Clear 83 28.3 75 23.9 77 77 WSW 8 13 29.94 1014 10 16 0.00 0.00
10:56 pm 22:56 Clear 82 27.8 77 25 85 85 SW 10 17 29.96 1015 10 16 0.00 0.00
11:56 pm 23:56 Clear 81 27.2 79 26.1 94 94 SW 10 17 29.97 1015 10 16 0.00 0.00

Powered by AerisWeather